Miscellaneous Local Product
Issued by NWS Hastings, NE

Home | Current Version | Previous Version | Graphics & Text | Print | Product List | Glossary On
Versions: 1 2 3 4 5 6 7 8 9 10 11 12 13 14 15 16 17 18 19 20 21 22 23 24 25 26 27 28 29 30 31 32 33 34 35 36 37 38 39 40 41 42 43 44 45 46 47 48 49 50
757
AXUS43 KGID 210102
MISGRI

GID CWA HOURLY WEATHER ROUNDUP
NATIONAL WEATHER SERVICE HASTINGS NE
700 PM CST FRI JAN 20 2017

NOTE: "FAIR" INDICATES FEW OR NO CLOUDS BELOW 12,000 FEET WITH NO
SIGNIFICANT WEATHER AND/OR OBSTRUCTIONS TO VISIBILITY.

...SOUTH CENTRAL NEBRASKA...

CITY           SKY/WX    TMP DP  RH WIND       PRES   REMARKS
GRAND ISLAND   FOG       39  39 100 S6        29.41R VSB 1   WCI  35
HASTINGS       FOG       39  39 100 S3        29.41R VSB 1/2
KEARNEY        CLOUDY    37 -11  12 S6        29.40R VSB 1/2 WCI  33
ORD            FOG       38  37  97 CALM      29.37R VSB 1/4
YORK           FOG       39  39 100 CALM      29.41R VSB 1/2
AURORA         FOG       38  38 100 CALM      29.41R VSB 1/4
LEXINGTON      CLOUDY    38  35  92 S6        29.39R WCI  33
HOLDREGE       CLOUDY    37  36  97 CALM      29.40R FOG
HEBRON         CLOUDY    42  42 100 SW3       29.42R FOG

...NEBRASKA PANHANDLE...

CITY           SKY/WX    TMP DP  RH WIND       PRES   REMARKS
CHADRON        CLOUDY    36  32  85 W12       29.38R WCI  28
ALLIANCE       CLOUDY    35  32  88 W8        29.38R WCI  29
SCOTTSBLUFF    LGT RAIN  36  33  89 W7        29.41R WCI  30
SIDNEY         CLOUDY    35  32  88 NW13      29.41R WCI  26

...WESTERN AND NORTH CENTRAL NEBRASKA...

CITY           SKY/WX    TMP DP  RH WIND       PRES   REMARKS
VALENTINE      PTCLDY    36  28  73 W6        29.35R WCI  31
AINSWORTH      CLOUDY    35  31  86 W5        29.35R WCI  31
ONEILL         CLOUDY    41  40  97 S8        29.37S FOG
BROKEN BOW     CLOUDY    34  33  96 CALM      29.36R FOG
IMPERIAL       CLOUDY    39  33  79 W5        29.39R
NORTH PLATTE   CLOUDY    36  31  82 NW3       29.37R
MCCOOK         CLOUDY    36  33  89 SW6       29.39R WCI  31

...EASTERN NEBRASKA...

CITY           SKY/WX    TMP DP  RH WIND       PRES   REMARKS
NORFOLK        FOG       38  38 100 SE8       29.39F VSB 1/2 WCI  32
SO SIOUX CITY  CLOUDY    40  39  97 SE9       29.46S FOG     WCI  34
TEKAMAH        CLOUDY    39  38  96 SE8       29.45F WCI  33
COLUMBUS       CLOUDY    39  37  93 E8        29.41F VSB 1/4 WCI  34
ALBION         FOG      N/A N/A N/A E6        29.39S VSB 3/4
OMAHA EPPLEY   LGT RAIN  42  38  85 SE6       29.46S FOG
OFFUTT AFB     DRIZZLE   41  41 100 E7        29.45S
MILLARD        RAIN      44  43  96 E5        29.45S
LINCOLN        CLOUDY    42  42 100 SE8       29.44R FOG
NEBRASKA CITY  FOG       42  42 100 E7        29.44F VSB 1/4
BEATRICE       FOG       44  44 100 SE8       29.43R VSB 1/2
FALLS CITY     FOG       44  44 100 SE5       29.45R VSB 1/2

...NORTHERN KANSAS...

CITY           SKY/WX    TMP DP  RH WIND       PRES   REMARKS
GOODLAND       CLEAR     34  33  96 W10       29.41R WCI  26
HILL CITY      CLOUDY    40  37  89 W3        29.42R
NORTON         CLOUDY    37  34  87 CALM      29.40
PHILLIPSBURG   CLOUDY    41  41 100 CALM      29.42S FOG
SMITH CENTER   CLOUDY    39  39 100 SW3       29.43S FOG
HAYS           CLOUDY    44  36  73 NW5       29.41F
RUSSELL        CLOUDY    45  41  86 N6        29.40S
CONCORDIA      LGT RAIN  45  45 100 SW5       29.42S FOG
SALINA         CLOUDY    46  45  96 S9        29.44R
TOPEKA         CLOUDY    50  47  89 CALM      29.45R



USA.gov is the U.S. government's official web portal to all federal, state and local government web resources and services.